QPF
0.00 0.00 0.00 0.00 0.00 0.00 0.00 0.00 0.01 0.01 0.01 0.01 0.01 0.02 0.05 0.07 0.10 0.12 0.14 0.16 0.14 0.12 0.13 0.14 0.13 0.08 0.06 0.05 0.04 0.04 0.05 0.05 0.05 0.05 0.04 0.04 0.05 0.05 0.05 0.04 0.03 0.02 0.02 0.03
0.00 0.00 0.00 0.00 0.00 0.01 0.01 0.01 0.01 0.01 0.01 0.01 0.01 0.02 0.04 0.05 0.07 0.11 0.15 0.15 0.13 0.13 0.14 0.12 0.10 0.07 0.05 0.04 0.02 0.02 0.02 0.02 0.02 0.02 0.01 0.01 0.01 0.01 0.01 0.01 0.01 0.00 0.00 0.01
0.00 0.00 0.00 0.00 0.01 0.01 0.01 0.01 0.01 0.02 0.02 0.02 0.02 0.03 0.04 0.05 0.06 0.08 0.10 0.10 0.08 0.05 0.05 0.04 0.05 0.04 0.03 0.01 0.01 0.01 0.00 0.00 0.00 0.01 0.00 0.00 0.00 0.00 0.00 0.00 0.00 0.00 0.00 0.00
0.00 0.00 0.01 0.01 0.01 0.01 0.01 0.01 0.01 0.01 0.02 0.02 0.02 0.02 0.03 0.04 0.05 0.05 0.05 0.05 0.05 0.04 0.02 0.01 0.02 0.02 0.01 0.00 0.00 0.00 0.00 0.00 0.01 0.01 0.00 0.00 0.00 0.00 0.00 0.00 0.00 0.00 0.00 0.00
0.00 0.00 0.01 0.01 0.01 0.01 0.01 0.01 0.01 0.02 0.02 0.01 0.00 0.01 0.01 0.02 0.02 0.01 0.02 0.02 0.03 0.03 0.02 0.01 0.01 0.01 0.00 0.00 0.00 0.00 0.00 0.00 0.01 0.01 0.00 0.00 0.00 0.00 0.00 0.00 0.00 0.00 0.00 0.00
0.00 0.00 0.01 0.01 0.00 0.01 0.01 0.01 0.01 0.02 0.01 0.00 0.00 0.00 0.00 0.00 0.00 0.00 0.01 0.01 0.02 0.01 0.01 0.01 0.00 0.00 0.00 0.00 0.00 0.00 0.00 0.01 0.01 0.00 0.00 0.00 0.00 0.00 0.00 0.00 0.00 0.00 0.00 0.00
0.01 0.01 0.01 0.00 0.00 0.01 0.01 0.01 0.01 0.01 0.00 0.00 0.00 0.00 0.00 0.00 0.00 0.00 0.00 0.00 0.00 0.00 0.00 0.00 0.00 0.00 0.00 0.00 0.00 0.00 0.00 0.00 0.00 0.00 0.00 0.00 0.00 0.00 0.00 0.00 0.00 0.00 0.00 0.00
0.00 0.01 0.01 0.01 0.01 0.01 0.01 0.01 0.01 0.00 0.00 0.00 0.00 0.00 0.00 0.00 0.00 0.00 0.00 0.00 0.00 0.00 0.00 0.00 0.00 0.00 0.00 0.00 0.00 0.00 0.00 0.00 0.00 0.00 0.00 0.00 0.00 0.00 0.00 0.00 0.00 0.00 0.00 0.00
0.00 0.00 0.00 0.01 0.01 0.01 0.01 0.00 0.00 0.00 0.00 0.00 0.00 0.00 0.00 0.00 0.00 0.00 0.00 0.00 0.00 0.00 0.00 0.00 0.00 0.00 0.00 0.00 0.00 0.00 0.00 0.00 0.00 0.00 0.00 0.00 0.00 0.00 0.00 0.00 0.00 0.00 0.00 0.00
0.00 0.00 0.00 0.01 0.01 0.00 0.00 0.00 0.00 0.00 0.00 0.00 0.00 0.00 0.00 0.00 0.00 0.00 0.00 0.00 0.00 0.00 0.00 0.00 0.00 0.00 0.00 0.00 0.00 0.00 0.00 0.00 0.00 0.00 0.00 0.00 0.00 0.00 0.00 0.00 0.00 0.00 0.00 0.00
0.00 0.00 0.00 0.00 0.00 0.00 0.00 0.00 0.00 0.00 0.00 0.00 0.00 0.00 0.00 0.00 0.00 0.00 0.00 0.00 0.00 0.00 0.00 0.00 0.00 0.00 0.00 0.00 0.00 0.00 0.00 0.00 0.00 0.00 0.00 0.00 0.00 0.00 0.00 0.00 0.00 0.00 0.00 0.00
0.00 0.00 0.00 0.00 0.00 0.00 0.00 0.00 0.00 0.00 0.00 0.00 0.00 0.00 0.00 0.00 0.00 0.00 0.00 0.00 0.00 0.00 0.00 0.00 0.00 0.00 0.00 0.00 0.00 0.00 0.00 0.00 0.00 0.00 0.00 0.00 0.00 0.00 0.00 0.00 0.00 0.00 0.00 0.00
0.00 0.00 0.00 0.00 0.00 0.00 0.00 0.00 0.00 0.00 0.00 0.00 0.00 0.00 0.00 0.00 0.00 0.00 0.00 0.00 0.00 0.00 0.00 0.00 0.00 0.00 0.00 0.00 0.00 0.00 0.00 0.00 0.00 0.00 0.00 0.00 0.00 0.00 0.00 0.00 0.00 0.00 0.00 0.00
0.00 0.00 0.00 0.00 0.01 0.01 0.00 0.00 0.00 0.00 0.00 0.00 0.00 0.00 0.00 0.00 0.00 0.00 0.00 0.00 0.00 0.00 0.00 0.00 0.00 0.00 0.00 0.00 0.00 0.00 0.00 0.00 0.00 0.00 0.00 0.00 0.00 0.00 0.00 0.00 0.00 0.00 0.00 0.00
0.00 0.00 0.00 0.00 0.00 0.01 0.01 0.00 0.00 0.00 0.00 0.00 0.00 0.00 0.00 0.00 0.00 0.00 0.00 0.00 0.00 0.00 0.00 0.00 0.00 0.00 0.00 0.00 0.00 0.00 0.00 0.00 0.00 0.00 0.00 0.00 0.00 0.00 0.00 0.00 0.00 0.00 0.00 0.00
0.00 0.00 0.00 0.00 0.00 0.01 0.00 0.00 0.00 0.00 0.00 0.00 0.00 0.00 0.00 0.00 0.00 0.00 0.00 0.00 0.00 0.00 0.00 0.00 0.00 0.00 0.00 0.00 0.00 0.00 0.00 0.00 0.00 0.00 0.00 0.00 0.00 0.00 0.00 0.00 0.00 0.00 0.00 0.00
0.00 0.00 0.00 0.00 0.00 0.00 0.00 0.00 0.00 0.00 0.00 0.00 0.00 0.00 0.00 0.00 0.00 0.00 0.00 0.00 0.00 0.00 0.00 0.00 0.00 0.00 0.00 0.00 0.00 0.00 0.00 0.00 0.00 0.00 0.00 0.00 0.00 0.00 0.00 0.00 0.00 0.00 0.00 0.00
0.00 0.00 0.00 0.00 0.00 0.00 0.00 0.00 0.00 0.00 0.00 0.00 0.00 0.00 0.00 0.00 0.00 0.00 0.00 0.00 0.00 0.00 0.00 0.00 0.00 0.00 0.00 0.00 0.00 0.00 0.00 0.00 0.00 0.00 0.00 0.00 0.00 0.00 0.00 0.00 0.00 0.00 0.00 0.00
0.01 0.01 0.01 0.00 0.00 0.00 0.00 0.00 0.00 0.00 0.00 0.00 0.00 0.00 0.00 0.00 0.00 0.00 0.00 0.00 0.00 0.00 0.00 0.00 0.00 0.00 0.00 0.00 0.00 0.00 0.00 0.00 0.00 0.00 0.00 0.00 0.00 0.00 0.00 0.00 0.00 0.00 0.00 0.00
0.02 0.02 0.01 0.01 0.01 0.01 0.00 0.00 0.00 0.00 0.00 0.00 0.00 0.00 0.00 0.00 0.00 0.00 0.00 0.00 0.00 0.00 0.00 0.00 0.00 0.00 0.00 0.00 0.00 0.00 0.00 0.00 0.00 0.00 0.00 0.00 0.00 0.00 0.00 0.00 0.00 0.00 0.00 0.00
0.02 0.01 0.01 0.01 0.01 0.00 0.00 0.00 0.00 0.00 0.00 0.00 0.00 0.00 0.00 0.00 0.00 0.00 0.00 0.00 0.00 0.00 0.00 0.00 0.00 0.00 0.00 0.00 0.00 0.00 0.00 0.00 0.00 0.00 0.00 0.00 0.00 0.00 0.00 0.00 0.00 0.00 0.00 0.00
0.00 0.01 0.01 0.01 0.00 0.00 0.00 0.00 0.00 0.00 0.00 0.00 0.00 0.00 0.00 0.00 0.00 0.00 0.00 0.00 0.00 0.00 0.00 0.00 0.00 0.00 0.00 0.00 0.00 0.00 0.00 0.00 0.00 0.00 0.00 0.00 0.00 0.00 0.00 0.00 0.00 0.00 0.00 0.00
0.00 0.00 0.00 0.00 0.00 0.00 0.00 0.00 0.00 0.00 0.00 0.00 0.00 0.00 0.00 0.00 0.00 0.00 0.00 0.00 0.00 0.00 0.00 0.00 0.00 0.00 0.00 0.00 0.00 0.00 0.00 0.00 0.00 0.00 0.00 0.00 0.00 0.00 0.00 0.00 0.00 0.00 0.00 0.00
0.00 0.00 0.00 0.00 0.00 0.00 0.00 0.00 0.00 0.00 0.00 0.00 0.00 0.00 0.00 0.00 0.00 0.00 0.00 0.00 0.00 0.00 0.00 0.00 0.00 0.00 0.00 0.00 0.00 0.00 0.00 0.00 0.00 0.00 0.00 0.00 0.00 0.00 0.00 0.00 0.00 0.00 0.00 0.00
0.00 0.00 0.00 0.00 0.00 0.00 0.00 0.00 0.00 0.00 0.00 0.00 0.00 0.00 0.00 0.00 0.00 0.00 0.00 0.00 0.00 0.00 0.00 0.00 0.00 0.00 0.00 0.00 0.00 0.00 0.00 0.00 0.00 0.00 0.00 0.00 0.00 0.00 0.00 0.00 0.00 0.00 0.00 0.00
0.00 0.00 0.00 0.00 0.00 0.00 0.00 0.00 0.00 0.00 0.00 0.00 0.00 0.00 0.00 0.00 0.00 0.00 0.00 0.00 0.00 0.00 0.00 0.00 0.00 0.00 0.00 0.00 0.00 0.00 0.00 0.00 0.00 0.00 0.00 0.00 0.00 0.00 0.00 0.00 0.00 0.01 0.01 0.00
MSLP
1011.90 1012.63 1013.12 1013.41 1013.56 1013.66 1013.80 1014.04 1014.40 1014.84 1015.30 1015.69 1015.95 1016.01 1015.88 1015.58 1015.18 1014.76 1014.39 1014.14 1014.01 1013.98 1014.04 1014.10 1014.13 1014.08 1013.97 1013.81 1013.64 1013.51 1013.46 1013.52 1013.67 1013.89 1014.13 1014.36 1014.52 1014.60 1014.58 1014.50 1014.40 1014.30 1014.26 1014.29
1012.05 1012.69 1013.11 1013.35 1013.51 1013.68 1013.93 1014.32 1014.83 1015.41 1015.98 1016.43 1016.68 1016.70 1016.48 1016.06 1015.54 1015.01 1014.56 1014.25 1014.09 1014.06 1014.11 1014.17 1014.19 1014.13 1013.99 1013.80 1013.61 1013.47 1013.44 1013.52 1013.71 1013.98 1014.27 1014.52 1014.69 1014.75 1014.70 1014.58 1014.42 1014.28 1014.20 1014.20
1011.98 1012.49 1012.84 1013.06 1013.26 1013.53 1013.94 1014.50 1015.19 1015.93 1016.60 1017.09 1017.33 1017.28 1016.94 1016.39 1015.74 1015.09 1014.55 1014.17 1013.98 1013.94 1013.99 1014.07 1014.10 1014.05 1013.91 1013.72 1013.54 1013.41 1013.40 1013.51 1013.75 1014.05 1014.38 1014.65 1014.83 1014.88 1014.81 1014.64 1014.44 1014.26 1014.15 1014.12
1011.77 1012.15 1012.41 1012.62 1012.89 1013.29 1013.87 1014.64 1015.52 1016.41 1017.19 1017.72 1017.93 1017.78 1017.32 1016.61 1015.81 1015.03 1014.38 1013.94 1013.71 1013.67 1013.74 1013.84 1013.90 1013.88 1013.77 1013.61 1013.44 1013.34 1013.35 1013.49 1013.75 1014.09 1014.44 1014.73 1014.91 1014.96 1014.87 1014.69 1014.47 1014.26 1014.11 1014.06
1011.57 1011.80 1011.97 1012.18 1012.53 1013.07 1013.84 1014.81 1015.88 1016.92 1017.78 1018.33 1018.49 1018.24 1017.63 1016.77 1015.81 1014.89 1014.14 1013.62 1013.36 1013.32 1013.41 1013.56 1013.66 1013.69 1013.62 1013.50 1013.36 1013.28 1013.31 1013.46 1013.73 1014.08 1014.44 1014.74 1014.93 1014.98 1014.89 1014.71 1014.48 1014.26 1014.09 1014.00
1011.49 1011.57 1011.67 1011.88 1012.30 1012.97 1013.91 1015.06 1016.29 1017.45 1018.37 1018.92 1019.01 1018.66 1017.91 1016.89 1015.78 1014.73 1013.88 1013.31 1013.02 1012.98 1013.11 1013.30 1013.46 1013.54 1013.53 1013.44 1013.33 1013.26 1013.30 1013.45 1013.71 1014.04 1014.39 1014.68 1014.87 1014.93 1014.86 1014.69 1014.47 1014.25 1014.07 1013.96
1011.60 1011.56 1011.59 1011.80 1012.28 1013.06 1014.13 1015.41 1016.75 1017.98 1018.91 1019.43 1019.46 1018.99 1018.11 1016.97 1015.74 1014.59 1013.67 1013.05 1012.76 1012.73 1012.89 1013.13 1013.36 1013.50 1013.53 1013.48 1013.39 1013.33 1013.34 1013.46 1013.69 1013.98 1014.30 1014.58 1014.76 1014.83 1014.78 1014.63 1014.43 1014.22 1014.04 1013.91
1011.90 1011.76 1011.74 1011.95 1012.47 1013.31 1014.46 1015.80 1017.19 1018.42 1019.33 1019.79 1019.74 1019.18 1018.20 1016.97 1015.67 1014.47 1013.52 1012.90 1012.61 1012.62 1012.83 1013.12 1013.40 1013.59 1013.66 1013.64 1013.56 1013.48 1013.46 1013.53 1013.70 1013.93 1014.20 1014.44 1014.60 1014.67 1014.63 1014.50 1014.33 1014.14 1013.97 1013.83
1012.29 1012.11 1012.06 1012.27 1012.80 1013.66 1014.81 1016.14 1017.49 1018.67 1019.51 1019.89 1019.76 1019.13 1018.11 1016.85 1015.54 1014.35 1013.43 1012.84 1012.60 1012.65 1012.91 1013.26 1013.58 1013.82 1013.92 1013.92 1013.83 1013.72 1013.65 1013.65 1013.74 1013.90 1014.09 1014.27 1014.40 1014.45 1014.42 1014.31 1014.16 1013.98 1013.82 1013.68
1012.66 1012.47 1012.44 1012.64 1013.15 1013.98 1015.07 1016.32 1017.56 1018.63 1019.36 1019.65 1019.45 1018.80 1017.79 1016.56 1015.32 1014.21 1013.37 1012.87 1012.70 1012.82 1013.13 1013.52 1013.88 1014.14 1014.27 1014.26 1014.16 1014.01 1013.88 1013.81 1013.80 1013.87 1013.97 1014.08 1014.16 1014.18 1014.13 1014.03 1013.89 1013.73 1013.57 1013.44
1012.87 1012.74 1012.73 1012.95 1013.43 1014.18 1015.15 1016.25 1017.33 1018.24 1018.83 1019.03 1018.79 1018.15 1017.20 1016.09 1014.98 1014.02 1013.33 1012.94 1012.88 1013.07 1013.43 1013.85 1014.23 1014.50 1014.62 1014.60 1014.47 1014.28 1014.09 1013.94 1013.85 1013.82 1013.84 1013.86 1013.87 1013.85 1013.78 1013.66 1013.52 1013.36 1013.21 1013.07
1012.87 1012.84 1012.90 1013.12 1013.55 1014.20 1015.02 1015.93 1016.81 1017.53 1017.97 1018.08 1017.82 1017.24 1016.41 1015.47 1014.55 1013.79 1013.27 1013.03 1013.07 1013.33 1013.73 1014.16 1014.54 1014.79 1014.90 1014.85 1014.70 1014.47 1014.23 1014.01 1013.84 1013.73 1013.65 1013.60 1013.54 1013.46 1013.34 1013.20 1013.04 1012.88 1012.73 1012.59
1012.71 1012.79 1012.93 1013.17 1013.55 1014.08 1014.72 1015.42 1016.07 1016.59 1016.89 1016.92 1016.66 1016.16 1015.49 1014.75 1014.06 1013.52 1013.19 1013.10 1013.24 1013.56 1013.97 1014.38 1014.72 1014.94 1015.01 1014.94 1014.76 1014.50 1014.22 1013.96 1013.73 1013.55 1013.40 1013.28 1013.15 1013.01 1012.85 1012.68 1012.49 1012.31 1012.15 1012.01
1012.48 1012.69 1012.90 1013.16 1013.48 1013.88 1014.34 1014.82 1015.25 1015.57 1015.73 1015.69 1015.46 1015.06 1014.56 1014.04 1013.58 1013.25 1013.10 1013.15 1013.36 1013.70 1014.09 1014.45 1014.74 1014.90 1014.92 1014.81 1014.61 1014.34 1014.04 1013.76 1013.51 1013.28 1013.09 1012.91 1012.73 1012.53 1012.33 1012.11 1011.90 1011.70 1011.51 1011.36
1012.33 1012.65 1012.92 1013.18 1013.44 1013.71 1013.98 1014.24 1014.46 1014.60 1014.63 1014.55 1014.34 1014.05 1013.71 1013.40 1013.15 1013.01 1013.02 1013.16 1013.42 1013.73 1014.07 1014.36 1014.56 1014.64 1014.61 1014.47 1014.25 1013.98 1013.70 1013.42 1013.17 1012.94 1012.72 1012.51 1012.29 1012.06 1011.81 1011.55 1011.30 1011.07 1010.86 1010.68
1012.40 1012.78 1013.08 1013.31 1013.49 1013.62 1013.72 1013.79 1013.81 1013.79 1013.71 1013.58 1013.40 1013.21 1013.02 1012.87 1012.80 1012.82 1012.94 1013.13 1013.39 1013.66 1013.91 1014.09 1014.20 1014.20 1014.11 1013.95 1013.73 1013.48 1013.23 1012.99 1012.76 1012.55 1012.34 1012.11 1011.87 1011.61 1011.33 1011.03 1010.74 1010.47 1010.23 1010.02
1012.72 1013.12 1013.40 1013.58 1013.65 1013.65 1013.58 1013.46 1013.31 1013.15 1012.98 1012.81 1012.66 1012.55 1012.48 1012.47 1012.53 1012.65 1012.84 1013.05 1013.27 1013.47 1013.63 1013.71 1013.71 1013.64 1013.50 1013.32 1013.11 1012.90 1012.70 1012.51 1012.34 1012.16 1011.97 1011.76 1011.51 1011.22 1010.91 1010.58 1010.25 1009.94 1009.66 1009.41
1013.27 1013.61 1013.82 1013.90 1013.85 1013.70 1013.47 1013.20 1012.91 1012.63 1012.38 1012.19 1012.06 1012.01 1012.03 1012.12 1012.28 1012.47 1012.69 1012.89 1013.07 1013.19 1013.25 1013.24 1013.16 1013.02 1012.85 1012.67 1012.49 1012.33 1012.19 1012.06 1011.95 1011.82 1011.66 1011.46 1011.21 1010.91 1010.57 1010.21 1009.84 1009.48 1009.16 1008.86
1013.87 1014.11 1014.21 1014.16 1013.97 1013.67 1013.29 1012.88 1012.48 1012.11 1011.81 1011.60 1011.50 1011.49 1011.58 1011.75 1011.97 1012.21 1012.44 1012.64 1012.78 1012.84 1012.83 1012.75 1012.61 1012.44 1012.26 1012.09 1011.95 1011.84 1011.76 1011.70 1011.63 1011.54 1011.41 1011.22 1010.97 1010.65 1010.29 1009.89 1009.48 1009.08 1008.71 1008.37
1014.35 1014.45 1014.39 1014.19 1013.85 1013.41 1012.91 1012.38 1011.89 1011.46 1011.13 1010.93 1010.85 1010.89 1011.04 1011.27 1011.55 1011.82 1012.07 1012.27 1012.39 1012.42 1012.38 1012.26 1012.11 1011.94 1011.77 1011.64 1011.54 1011.48 1011.44 1011.43 1011.40 1011.33 1011.21 1011.02 1010.75 1010.42 1010.02 1009.59 1009.15 1008.71 1008.29 1007.92
1014.54 1014.47 1014.25 1013.89 1013.41 1012.84 1012.23 1011.63 1011.07 1010.61 1010.28 1010.09 1010.05 1010.14 1010.35 1010.63 1010.96 1011.28 1011.56 1011.78 1011.91 1011.95 1011.92 1011.82 1011.68 1011.54 1011.41 1011.31 1011.26 1011.24 1011.24 1011.24 1011.22 1011.16 1011.03 1010.82 1010.52 1010.16 1009.73 1009.27 1008.79 1008.32 1007.88 1007.47
1014.35 1014.13 1013.75 1013.25 1012.64 1011.97 1011.28 1010.62 1010.03 1009.57 1009.25 1009.09 1009.08 1009.23 1009.49 1009.83 1010.21 1010.58 1010.91 1011.17 1011.35 1011.44 1011.45 1011.41 1011.33 1011.24 1011.16 1011.11 1011.09 1011.09 1011.10 1011.11 1011.07 1010.98 1010.82 1010.57 1010.24 1009.83 1009.37 1008.88 1008.38 1007.89 1007.43 1007.02
1013.82 1013.46 1012.96 1012.34 1011.64 1010.89 1010.15 1009.46 1008.87 1008.41 1008.12 1007.99 1008.03 1008.22 1008.53 1008.92 1009.35 1009.78 1010.17 1010.50 1010.74 1010.90 1010.99 1011.02 1011.02 1010.99 1010.98 1010.97 1010.97 1010.99 1010.99 1010.97 1010.90 1010.76 1010.54 1010.24 1009.86 1009.41 1008.92 1008.41 1007.89 1007.40 1006.95 1006.56
1013.08 1012.64 1012.05 1011.35 1010.58 1009.79 1009.03 1008.33 1007.75 1007.31 1007.04 1006.94 1007.02 1007.24 1007.58 1008.01 1008.48 1008.96 1009.40 1009.79 1010.11 1010.35 1010.53 1010.64 1010.72 1010.77 1010.80 1010.83 1010.86 1010.87 1010.85 1010.78 1010.66 1010.46 1010.18 1009.83 1009.40 1008.91 1008.40 1007.87 1007.35 1006.87 1006.44 1006.07
1012.35 1011.86 1011.23 1010.49 1009.70 1008.89 1008.12 1007.43 1006.86 1006.44 1006.19 1006.11 1006.19 1006.43 1006.78 1007.22 1007.70 1008.20 1008.68 1009.12 1009.49 1009.81 1010.06 1010.25 1010.40 1010.51 1010.60 1010.66 1010.69 1010.68 1010.63 1010.53 1010.35 1010.09 1009.76 1009.35 1008.88 1008.36 1007.83 1007.29 1006.79 1006.33 1005.93 1005.59
1011.85 1011.35 1010.71 1009.97 1009.18 1008.38 1007.62 1006.94 1006.38 1005.97 1005.71 1005.63 1005.70 1005.90 1006.23 1006.64 1007.11 1007.59 1008.07 1008.52 1008.93 1009.28 1009.58 1009.83 1010.03 1010.19 1010.31 1010.39 1010.42 1010.41 1010.33 1010.19 1009.97 1009.67 1009.29 1008.85 1008.35 1007.82 1007.27 1006.75 1006.25 1005.81 1005.44 1005.13
Thickness
5764 5747 5737 5742 5745 5745 5739 5730 5723 5727 5737 5730 5722 5719 5722 5728 5730 5730 5730 5731 5731 5732 5736 5737 5738 5739 5737 5734 5732 5731 5729 5727 5724 5720 5717 5714 5712 5711 5709 5708 5705 5703 5701 5699
5749 5743 5756 5760 5755 5746 5738 5728 5723 5725 5732 5725 5714 5712 5716 5719 5721 5724 5724 5725 5727 5728 5729 5731 5732 5732 5731 5728 5726 5725 5723 5721 5718 5715 5712 5708 5705 5703 5701 5699 5697 5695 5692 5690
5748 5755 5766 5759 5750 5741 5735 5729 5725 5721 5722 5720 5712 5704 5707 5712 5717 5720 5723 5724 5725 5726 5726 5726 5727 5727 5726 5724 5723 5722 5719 5716 5713 5709 5705 5701 5697 5694 5691 5689 5687 5685 5682 5680
5755 5764 5763 5754 5747 5744 5729 5740 5735 5726 5711 5697 5702 5686 5698 5702 5706 5712 5716 5719 5722 5724 5725 5724 5724 5724 5723 5722 5721 5718 5715 5711 5708 5704 5699 5694 5689 5684 5682 5679 5677 5675 5673 5671
5756 5763 5759 5751 5752 5750 5736 5740 5732 5722 5708 5696 5694 5687 5690 5699 5700 5707 5713 5718 5721 5723 5723 5722 5723 5723 5723 5721 5719 5715 5711 5707 5703 5698 5694 5688 5683 5678 5674 5671 5668 5666 5664 5663
5762 5770 5767 5760 5758 5755 5744 5732 5721 5707 5698 5683 5686 5683 5687 5695 5703 5709 5716 5719 5722 5723 5723 5722 5722 5722 5720 5718 5715 5711 5706 5701 5697 5692 5687 5681 5676 5671 5667 5663 5660 5657 5655 5654
5751 5760 5767 5765 5748 5745 5738 5715 5693 5688 5677 5678 5689 5684 5689 5710 5716 5716 5718 5721 5723 5723 5721 5720 5719 5717 5715 5713 5709 5705 5699 5694 5690 5685 5680 5674 5669 5664 5660 5656 5652 5649 5646 5645
5735 5734 5758 5762 5753 5738 5732 5721 5694 5684 5676 5678 5687 5684 5701 5722 5725 5724 5724 5723 5723 5721 5719 5718 5716 5713 5710 5707 5702 5697 5692 5687 5682 5677 5672 5667 5662 5657 5653 5649 5645 5642 5639 5637
5733 5735 5762 5767 5764 5749 5728 5717 5713 5689 5682 5676 5683 5694 5711 5725 5724 5724 5723 5722 5720 5718 5717 5715 5712 5708 5704 5700 5695 5690 5685 5679 5675 5670 5665 5660 5656 5651 5646 5643 5639 5635 5632 5630
5746 5736 5752 5760 5761 5751 5741 5719 5701 5689 5676 5674 5685 5689 5694 5715 5719 5722 5720 5719 5718 5716 5712 5710 5705 5701 5697 5692 5688 5683 5678 5673 5668 5664 5659 5655 5650 5645 5640 5636 5631 5628 5625 5622
5749 5731 5737 5745 5742 5738 5732 5718 5700 5686 5686 5673 5671 5684 5716 5719 5723 5721 5720 5719 5715 5711 5707 5702 5698 5694 5690 5686 5681 5676 5672 5667 5662 5658 5653 5647 5643 5638 5633 5628 5625 5621 5617 5614
5741 5724 5717 5731 5745 5749 5743 5729 5708 5696 5686 5678 5674 5687 5729 5726 5725 5722 5719 5717 5713 5708 5702 5697 5692 5688 5684 5680 5675 5671 5666 5661 5657 5652 5646 5641 5636 5631 5626 5622 5618 5614 5610 5606
5740 5722 5705 5708 5720 5736 5736 5730 5716 5700 5684 5674 5674 5694 5726 5725 5723 5720 5717 5712 5706 5702 5697 5692 5687 5683 5678 5674 5670 5666 5661 5656 5651 5646 5640 5635 5630 5625 5620 5616 5611 5607 5603 5599
5747 5722 5711 5705 5711 5726 5729 5730 5717 5706 5689 5682 5687 5701 5717 5720 5718 5716 5711 5706 5700 5696 5692 5687 5681 5677 5673 5669 5665 5660 5656 5651 5646 5640 5635 5629 5624 5619 5614 5609 5605 5600 5596 5592
5746 5727 5725 5724 5730 5730 5730 5731 5724 5715 5708 5698 5704 5703 5713 5715 5715 5712 5707 5701 5697 5693 5689 5684 5678 5673 5669 5665 5660 5656 5651 5647 5641 5635 5629 5624 5619 5613 5608 5603 5598 5594 5590 5586
5738 5730 5727 5726 5732 5729 5728 5732 5729 5724 5718 5712 5710 5709 5719 5717 5712 5707 5702 5697 5693 5689 5686 5682 5677 5671 5666 5662 5657 5653 5648 5643 5636 5630 5624 5619 5613 5608 5603 5597 5593 5588 5584 5579
5728 5724 5714 5710 5720 5725 5715 5730 5730 5727 5725 5716 5708 5714 5718 5712 5708 5703 5699 5694 5691 5687 5683 5679 5674 5669 5664 5659 5655 5649 5644 5638 5631 5625 5620 5614 5608 5602 5597 5592 5587 5582 5577 5573
5725 5716 5704 5703 5712 5701 5718 5737 5736 5729 5726 5723 5721 5719 5715 5713 5710 5705 5700 5694 5690 5686 5682 5678 5673 5668 5663 5657 5651 5645 5639 5633 5626 5620 5614 5609 5603 5597 5591 5586 5581 5576 5571 5566
5730 5716 5700 5693 5696 5704 5723 5735 5732 5725 5722 5726 5720 5718 5713 5707 5704 5700 5701 5696 5692 5688 5683 5677 5672 5666 5660 5654 5648 5640 5634 5627 5621 5615 5610 5604 5598 5592 5586 5581 5576 5570 5565 5561
5722 5717 5702 5692 5695 5694 5720 5741 5740 5728 5712 5726 5720 5714 5706 5699 5686 5692 5704 5698 5692 5687 5681 5675 5670 5663 5656 5651 5643 5636 5630 5623 5617 5612 5606 5599 5593 5586 5581 5575 5570 5565 5559 5555
5713 5707 5701 5693 5694 5703 5732 5740 5734 5706 5709 5731 5723 5715 5703 5698 5700 5703 5705 5698 5693 5687 5680 5674 5666 5659 5654 5648 5639 5632 5625 5619 5614 5608 5601 5595 5588 5582 5576 5571 5565 5560 5555 5550
5709 5701 5696 5688 5690 5701 5739 5731 5722 5724 5737 5733 5725 5718 5709 5706 5705 5702 5699 5694 5689 5683 5678 5672 5663 5656 5651 5644 5635 5628 5623 5618 5611 5603 5597 5590 5584 5578 5574 5567 5561 5556 5550 5545
5708 5710 5705 5704 5712 5731 5736 5737 5742 5739 5734 5731 5726 5721 5714 5707 5702 5700 5695 5690 5685 5680 5674 5668 5660 5653 5647 5640 5632 5625 5621 5614 5606 5598 5592 5586 5580 5574 5569 5563 5558 5553 5548 5542
5716 5715 5709 5707 5721 5732 5735 5737 5740 5738 5736 5735 5731 5724 5715 5707 5704 5698 5692 5686 5681 5676 5670 5663 5655 5648 5643 5637 5630 5623 5617 5609 5601 5594 5588 5582 5576 5572 5567 5561 5556 5551 5546 5541
5715 5714 5706 5706 5718 5727 5737 5738 5739 5737 5735 5732 5727 5723 5717 5710 5704 5697 5690 5684 5678 5672 5666 5659 5651 5645 5640 5634 5627 5620 5613 5605 5597 5590 5584 5579 5573 5569 5565 5560 5555 5550 5546 5539
5707 5704 5700 5704 5720 5717 5725 5736 5736 5732 5730 5728 5723 5718 5714 5709 5704 5696 5688 5682 5676 5669 5662 5654 5647 5641 5636 5630 5623 5617 5610 5601 5593 5587 5581 5576 5571 5567 5562 5559 5556 5553 5546 5541